CW2750 Weather Reports


time (UTC)temp
C
wind
direction
speed
KPH
gust
KPH
rain 1hr
cm
rain 24hr
cm
rain mn
cm
humidity
%
barometer
mb
20260503175946 16 226 1.6 8.0 0.00 0.00 0.00 60 1012.6
20260503175445 16 315 1.6 11.3 0.00 0.00 0.00 59 1012.6
20260503174947 16 346 0.0 11.3 0.00 0.00 0.00 58 1012.6
20260503174448 16 244 0.0 1.6 0.00 0.00 0.00 58 1012.6
20260503173945 16 244 0.0 1.6 0.00 0.00 0.00 58 1012.6
20260503173713 16 244 0.0 0.0 0.00 0.00 0.00 58 1012.7
20260503172434 16 243 0.0 3.2 0.00 0.00 0.00 58 1012.7
20260503171933 16 251 0.0 0.0 0.00 0.00 0.00 58 1012.5
20260503171702 16 257 0.0 0.0 0.00 0.00 0.00 59 1012.5
20260503170933 16 257 0.0 8.0 0.00 0.00 0.00 59 1012.5
20260503170431 16 256 0.0 8.0 0.00 0.00 0.00 59 1012.5
20260503150850 12 244 0.0 0.0 0.00 0.00 0.00 78 1012.4
20260503150337 12 244 0.0 0.0 0.00 0.00 0.00 79 1012.3
20260503130807 12 278 0.0 0.0 0.00 0.00 0.00 76 1011.0
20260503130307 12 278 0.0 0.0 0.00 0.00 0.00 76 1010.7
20260503110738 13 292 0.0 0.0 0.00 0.00 0.00 72 1010.8
20260503110240 13 292 0.0 0.0 0.00 0.00 0.00 72 1010.8
20260503090430 13 292 0.0 0.0 0.00 0.00 0.00 72 1010.9
20260503081627 13 292 0.0 0.0 0.00 0.00 0.00 71 1011.3
20260503081129 13 292 0.0 0.0 0.00 0.00 0.00 72 1011.3
20260503080628 13 292 0.0 0.0 0.00 0.00 0.00 72 1011.5
20260503080127 13 292 0.0 0.0 0.00 0.00 0.00 72 1011.5
20260503072614 13 292 0.0 0.0 0.00 0.00 0.00 71 1011.5
20260503072114 13 292 0.0 0.0 0.00 0.00 0.00 71 1011.6
20260503071613 13 292 0.0 0.0 0.00 0.00 0.00 71 1011.6
20260503071113 13 292 0.0 0.0 0.00 0.00 0.00 71 1011.6
20260503070615 13 292 0.0 0.0 0.00 0.00 0.00 71 1011.5
20260503060330 13 292 0.0 0.0 0.00 0.00 0.00 70 1011.8
20260503055058 13 292 0.0 0.0 0.00 0.00 0.00 70 1012.0
20260503054558 13 291 1.6 8.0 0.00 0.00 0.00 70 1012.0
20260503054053 13 291 1.6 9.7 0.00 0.00 0.00 70 1012.0
20260503053548 13 294 0.0 6.4 0.00 0.00 0.00 70 1012.1
20260503053048 13 25 0.0 0.0 0.00 0.00 0.00 70 1012.1
20260503052544 13 328 0.0 0.0 0.00 0.00 0.00 70 1012.1
20260503052047 13 312 0.0 3.2 0.00 0.00 0.00 70 1012.1
20260503051542 13 302 0.0 3.2 0.00 0.00 0.00 70 1012.1
20260503051042 13 305 0.0 1.6 0.00 0.00 0.00 70 1012.1
20260503050537 13 309 0.0 0.0 0.00 0.00 0.00 70 1012.1
20260503050035 13 309 0.0 0.0 0.00 0.00 0.00 71 1012.1
20260503045804 13 309 0.0 0.0 0.00 0.00 0.00 71 1012.1
20260503045031 13 309 0.0 0.0 0.00 0.00 0.00 71 1011.9
20260503044530 13 309 0.0 0.0 0.00 0.00 0.00 71 1011.9
20260503044301 13 309 0.0 4.8 0.00 0.00 0.00 70 1011.9
20260503043532 13 308 0.0 4.8 0.00 0.00 0.00 70 1011.8
20260503043030 13 304 0.0 0.0 0.00 0.00 0.00 70 1011.8
20260503042532 13 304 0.0 4.8 0.00 0.00 0.00 70 1011.8
20260503042027 13 304 0.0 4.8 0.00 0.00 0.00 70 1011.7
20260503041522 13 288 0.0 1.6 0.00 0.00 0.00 70 1011.7
20260503041017 13 288 0.0 6.4 0.00 0.00 0.00 70 1011.7
20260503040518 13 320 0.0 6.4 0.00 0.00 0.00 70 1011.4
20260503040020 14 311 0.0 4.8 0.00 0.00 0.00 69 1011.4
20260503035518 14 311 0.0 6.4 0.00 0.00 0.00 69 1011.4
20260503035018 14 0 0.0 8.0 0.00 0.00 0.00 69 1011.3
20260503034517 14 294 0.0 8.0 0.00 0.00 0.00 69 1011.3
20260503034251 14 291 0.0 8.0 0.00 0.00 0.00 69 1011.3
20260503033744 14 309 0.0 9.7 0.00 0.00 0.00 69 1011.1
20260503033014 14 309 1.6 9.7 0.00 0.00 0.00 69 1011.1
20260503032511 14 298 0.0 16.1 0.00 0.00 0.00 69 1011.1
20260503031510 14 308 0.0 8.0 0.00 0.00 0.00 68 1011.0
20260503031009 14 306 0.0 8.0 0.00 0.00 0.00 68 1011.0
20260503030509 15 312 0.0 8.0 0.00 0.00 0.00 68 1010.9
20260503030009 15 308 0.0 9.7 0.00 0.00 0.00 67 1010.9
20260503025508 15 302 1.6 9.7 0.00 0.00 0.00 67 1010.9
20260503025008 15 306 1.6 9.7 0.00 0.00 0.00 67 1010.6
20260503024510 15 292 0.0 8.0 0.00 0.00 0.00 66 1010.6
20260503024241 15 322 0.0 4.8 0.00 0.00 0.00 66 1010.6
20260503023510 15 313 0.0 4.8 0.00 0.00 0.00 66 1010.6
20260503023008 15 352 0.0 9.7 0.00 0.00 0.00 66 1010.6
20260503022509 15 352 0.0 9.7 0.00 0.00 0.00 65 1010.6
20260503022010 15 296 0.0 11.3 0.00 0.00 0.00 65 1010.6
20260503021509 15 289 0.0 11.3 0.00 0.00 0.00 65 1010.6
20260503021006 15 20 0.0 11.3 0.00 0.00 0.00 65 1010.6
20260503020506 15 313 0.0 11.3 0.00 0.00 0.00 64 1010.5
20260503020006 16 299 0.0 4.8 0.00 0.00 0.00 64 1010.5
20260503015739 16 350 0.0 4.8 0.00 0.00 0.00 64 1010.5
20260503014508 16 313 0.0 9.7 0.00 0.00 0.00 63 1010.5
20260503014006 16 311 1.6 9.7 0.00 0.00 0.00 62 1010.5
20260503013507 16 301 0.0 9.7 0.00 0.00 0.00 62 1010.5
20260503013008 16 305 0.0 11.3 0.00 0.00 0.00 62 1010.5
20260503012504 16 305 1.6 12.9 0.00 0.00 0.00 62 1010.5
20260503012236 17 319 1.6 12.9 0.00 0.00 0.00 61 1010.5
20260503011504 17 342 1.6 12.9 0.00 0.00 0.00 61 1010.6
20260503011004 17 330 0.0 4.8 0.00 0.00 0.00 60 1010.6
20260503010504 17 352 0.0 4.8 0.00 0.00 0.00 59 1010.6
20260503010236 17 282 1.6 11.3 0.00 0.00 0.00 59 1010.6
20260503005504 17 330 1.6 12.9 0.00 0.00 0.00 59 1010.6
20260503004506 18 326 1.6 11.3 0.00 0.00 0.00 57 1010.6
20260503004235 18 306 1.6 11.3 0.00 0.00 0.00 56 1010.6
20260503003504 18 295 0.0 9.7 0.00 0.00 0.00 56 1010.5
20260503003003 19 291 1.6 9.7 0.00 0.00 0.00 55 1010.5
20260503002504 19 3 1.6 11.3 0.00 0.00 0.00 54 1010.5
20260503002003 20 342 1.6 16.1 0.00 0.00 0.00 53 1010.5
20260503001501 19 328 3.2 16.1 0.00 0.00 0.00 53 1010.5
20260503001000 20 332 1.6 16.1 0.00 0.00 0.00 52 1010.5
20260503000500 20 299 0.0 11.3 0.00 0.00 0.00 52 1010.5
20260502235959 20 325 1.6 11.3 0.00 0.00 0.00 52 1010.5
20260502235459 20 325 1.6 11.3 0.00 0.00 0.00 52 1010.5
20260502234459 20 330 0.0 11.3 0.00 0.00 0.00 52 1010.5
20260502234232 20 289 1.6 16.1 0.00 0.00 0.00 52 1010.5
20260502233500 20 359 1.6 16.1 0.00 0.00 0.00 51 1010.5
20260502232958 21 352 1.6 17.7 0.00 0.00 0.00 51 1010.5
20260502232458 21 305 1.6 17.7 0.00 0.00 0.00 51 1010.5
20260502231959 21 263 1.6 12.9 0.00 0.00 0.00 50 1010.5
20260502231457 21 287 1.6 11.3 0.00 0.00 0.00 50 1010.5
20260502230957 21 3 1.6 16.1 0.00 0.00 0.00 50 1010.6
20260502230458 22 313 1.6 16.1 0.00 0.00 0.00 49 1010.7
20260502225958 21 323 1.6 11.3 0.00 0.00 0.00 50 1010.7
20260502225458 21 359 1.6 12.9 0.00 0.00 0.00 49 1010.7
20260502225229 22 333 1.6 16.1 0.00 0.00 0.00 48 1010.8
20260502224459 22 299 1.6 16.1 0.00 0.00 0.00 47 1010.8
20260502223957 22 319 3.2 16.1 0.00 0.00 0.00 47 1010.8
20260502223455 22 278 1.6 16.1 0.00 0.00 0.00 46 1011.1
20260502222956 22 296 0.0 9.7 0.00 0.00 0.00 46 1011.1
20260502222729 23 241 0.0 1.6 0.00 0.00 0.00 46 1011.1
20260502221956 23 330 0.0 1.6 0.00 0.00 0.00 47 1011.3
20260502221457 22 330 0.0 1.6 0.00 0.00 0.00 48 1011.3
20260502220956 23 330 0.0 4.8 0.00 0.00 0.00 46 1011.3
20260502220457 22 330 0.0 4.8 0.00 0.00 0.00 46 1011.6
20260502215955 22 359 0.0 0.0 0.00 0.00 0.00 48 1011.6
20260502215457 22 359 0.0 0.0 0.00 0.00 0.00 50 1011.6
20260502214958 22 359 0.0 6.4 0.00 0.00 0.00 48 1011.6
20260502214457 22 359 0.0 6.4 0.00 0.00 0.00 48 1011.7
20260502213953 21 357 0.0 0.0 0.00 0.00 0.00 50 1011.6
20260502213456 21 323 0.0 0.0 0.00 0.00 0.00 50 1011.6
20260502212955 21 329 0.0 4.8 0.00 0.00 0.00 51 1011.6
20260502212453 21 329 0.0 4.8 0.00 0.00 0.00 51 1011.6
20260502211938 21 58 0.0 3.2 0.00 0.00 0.00 52 1012.0
20260502211439 20 90 0.0 8.0 0.00 0.00 0.00 52 1012.0
20260502210939 21 89 0.0 8.0 0.00 0.00 0.00 53 1012.0
20260502210439 20 23 0.0 8.0 0.00 0.00 0.00 52 1012.2
20260502210211 20 32 0.0 8.0 0.00 0.00 0.00 54 1012.2
20260502205440 20 24 0.0 6.4 0.00 0.00 0.00 53 1012.2
20260502205209 20 24 0.0 9.7 0.00 0.00 0.00 54 1012.6
20260502204427 20 30 0.0 9.7 0.00 0.00 0.00 56 1012.6
20260502203926 20 78 0.0 1.6 0.00 0.00 0.00 55 1012.6
20260502203416 20 69 0.0 1.6 0.00 0.00 0.00 54 1012.7
20260502202909 20 11 0.0 1.6 0.00 0.00 0.00 56 1012.7
20260502202409 19 16 0.0 3.2 0.00 0.00 0.00 59 1012.7
20260502201911 19 30 0.0 9.7 0.00 0.00 0.00 60 1013.0
20260502201410 18 25 0.0 9.7 0.00 0.00 0.00 58 1013.0
20260502200911 18 326 0.0 9.7 0.00 0.00 0.00 59 1013.0
20260502200412 18 38 0.0 8.0 0.00 0.00 0.00 61 1013.2
20260502195910 18 38 0.0 8.0 0.00 0.00 0.00 61 1013.2
20260502195409 18 86 0.0 0.0 0.00 0.00 0.00 62 1013.2
20260502194912 18 103 0.0 1.6 0.00 0.00 0.00 65 1013.3
20260502194410 17 157 0.0 1.6 0.00 0.00 0.00 64 1013.2
20260502194140 17 97 0.0 1.6 0.00 0.00 0.00 64 1013.2
20260502193401 17 161 0.0 1.6 0.00 0.00 0.00 65 1013.3
20260502192856 17 305 0.0 1.6 0.00 0.00 0.00 65 1013.3
20260502192356 17 305 0.0 1.6 0.00 0.00 0.00 66 1013.3
20260502191857 17 305 0.0 1.6 0.00 0.00 0.00 65 1013.4
20260502191356 17 305 0.0 9.7 0.00 0.00 0.00 66 1013.4
20260502190859 17 305 0.0 9.7 0.00 0.00 0.00 66 1013.4
20260502190358 17 27 0.0 0.0 0.00 0.00 0.00 67 1013.6
20260502185848 16 27 0.0 0.0 0.00 0.00 0.00 67 1013.6
20260502185344 16 27 0.0 1.6 0.00 0.00 0.00 68 1013.6
20260502184844 16 27 0.0 1.6 0.00 0.00 0.00 68 1013.6
20260502184342 16 100 0.0 0.0 0.00 0.00 0.00 69 1013.6
20260502183837 16 100 0.0 0.0 0.00 0.00 0.00 71 1013.6
20260502183329 16 100 0.0 0.0 0.00 0.00 0.00 71 1013.8
20260502182827 15 100 0.0 0.0 0.00 0.00 0.00 73 1013.8
20260502182326 15 100 0.0 0.0 0.00 0.00 0.00 73 1013.8
20260502181828 15 100 0.0 0.0 0.00 0.00 0.00 73 1013.8
20260502181321 15 100 0.0 0.0 0.00 0.00 0.00 74 1013.8
20260502180821 15 100 0.0 0.0 0.00 0.00 0.00 74 1013.8